Tracking 25709 objects as of 23-May-2022
HD Live streaming from Space Station
objects crossing your sky now

COSMOS 2251 DEB

Track COSMOS 2251 DEB now!
10-day predictions


NORAD ID: 35442
Int'l Code: 1993-036AKL
Perigee: 733.0 km
Apogee: 750.9 km
Inclination: 74.0 °
Period: 99.5 minutes
Semi major axis: 7112 km
RCS: 0.0032 m2 (small)
Launch date: June 16, 1993
Source: Commonwealth of Independent States (former USSR) (CIS)
Launch site: PLESETSK MISSILE AND SPACE COMPLEX (PKMTR)

Note: This is SATELLITE DEBRIS
aabbcc
Your satellite tracking list
Your tracking list is empty




NASA's NSSDC Master Catalog

Two Line Element Set (TLE):
1 35442U 93036AKL 22142.48522329  .00006748  00000-0  18511-2 0  9998
2 35442  74.0432  61.8819 0012582  65.0971 295.1494 14.47203541683720
Source of the keplerian elements: AFSPC